Mukilteo, WA

5:11 PM PST on February 22, 2017 (GMT -0800)
Snohomish County

Weather History for KPAE - December, 2013

Change the Weather History Date:

Saturday, December 21, 2013

  Actual Average Record
Temperature  
Mean Temperature 39 °F -  
Max Temperature 41 °F 42 °F 57 °F (1974)
Min Temperature 37 °F 33 °F 7 °F (1990)
Degree Days  
Heating Degree Days 26    
Moisture  
Dew Point 37 °F    
Average Humidity 94    
Maximum Humidity 100    
Minimum Humidity 93    
Precipitation  
Precipitation 0.17 in - - ()
Sea Level Pressure  
Sea Level Pressure 30.04 in    
Wind  
Wind Speed 2 mph (NE)    
Max Wind Speed 7 mph    
Max Gust Speed -    
Visibility 2 miles    
Events Fog , Rain    
Averages and records for this station are not official NWS values.
T = Trace of Precipitation, MM = Missing Value Source: NWS Daily Summary

Daily Weather History Graph

Daily Weather History Graph

Search for Another Location

Airport or City:

Trip Planner

Search our weather history database for the weather conditions in past years. The results will help you decide how hot, cold, wet, or windy it might be!

Date:

Astronomy

Dec. 21, 2013 Rise Set
Actual Time 7:55 AM PST 4:18 PM PST
Civil Twilight 7:19 AM PST 4:55 PM PST
Nautical Twilight 6:39 AM PST 5:34 PM PST
Astronomical Twilight 6:02 AM PST 6:12 PM PST
Moon 8:58 PM PST (12/21) 10:08 AM PST (12/21)
Length of Visible Light 9h 35m
Length of Day
8h 23m
Waning Gibbous, 83% of the Moon is Illuminated
Dec 21
Waning Gibbous
Dec 25
Last Quarter
Jan 1
New
Jan 7
First Quarter
Jan 15
Full

Hourly Weather History & Observations

Time (PST) Temp. Windchill Dew Point Humidity Pressure Visibility Wind Dir Wind Speed Gust Speed Precip Events Conditions
12:29 AM 37.4 °F - 37.4 °F 100% 29.85 in 3.0 mi Calm Calm - N/A   Overcast
12:39 AM 37.4 °F - 37.4 °F 100% 29.86 in 1.8 mi Calm Calm - N/A   Overcast
12:45 AM 37.4 °F - 35.6 °F 93% 29.86 in 0.2 mi Calm Calm - N/A Fog Fog
12:53 AM 37.9 °F - 36.0 °F 93% 29.88 in 0.2 mi Calm Calm - N/A Fog Fog
1:16 AM 37.4 °F - 35.6 °F 93% 29.87 in 0.2 mi Calm Calm - N/A Fog Fog
1:22 AM 37.4 °F - 35.6 °F 93% 29.88 in 0.5 mi Calm Calm - 0.01 in Fog Fog
1:34 AM 37.4 °F 34.9 °F 35.6 °F 93% 29.88 in 1.0 mi NNE 3.5 mph - 0.01 in   Mist
1:41 AM 37.4 °F 34.9 °F 35.6 °F 93% 29.88 in 0.5 mi NNE 3.5 mph - 0.01 in Fog Fog
1:49 AM 37.4 °F - 35.6 °F 93% 29.89 in 0.2 mi Calm Calm - 0.01 in Fog Fog
1:53 AM 37.0 °F - 36.0 °F 96% 29.91 in 0.2 mi Calm Calm - 0.01 in Fog Fog
2:10 AM 37.4 °F 34.9 °F 35.6 °F 93% 29.90 in 0.2 mi North 3.5 mph - N/A Fog Fog
2:53 AM 37.0 °F 32.4 °F 36.0 °F 96% 29.95 in 0.2 mi NNE 5.8 mph - N/A Fog Fog
3:29 AM 37.4 °F 32.8 °F 35.6 °F 93% 29.95 in 0.2 mi North 5.8 mph - 0.00 in Fog , Rain Light Rain
3:43 AM 37.4 °F 33.8 °F 35.6 °F 93% 29.95 in 0.2 mi North 4.6 mph - 0.00 in Fog Fog
3:53 AM 37.0 °F 33.3 °F 36.0 °F 96% 29.97 in 0.2 mi North 4.6 mph - 0.00 in Fog Fog
4:53 AM 37.0 °F 33.3 °F 36.0 °F 96% 30.00 in 0.2 mi North 4.6 mph - N/A Fog Fog
5:06 AM 37.4 °F 32.8 °F 35.6 °F 93% 29.98 in 0.5 mi NNE 5.8 mph - N/A Fog Fog
5:43 AM 37.4 °F 32.1 °F 35.6 °F 93% 30.00 in 1.2 mi North 6.9 mph - N/A   Overcast
5:53 AM 37.0 °F 32.4 °F 36.0 °F 96% 30.02 in 0.8 mi NNE 5.8 mph - N/A   Mist
6:06 AM 37.4 °F 33.8 °F 35.6 °F 93% 30.01 in 0.2 mi NNE 4.6 mph - N/A Fog Fog
6:24 AM 37.4 °F 32.8 °F 35.6 °F 93% 30.02 in 0.2 mi NNE 5.8 mph - N/A Fog Fog
6:39 AM 37.4 °F 34.9 °F 35.6 °F 93% 30.02 in 0.5 mi NE 3.5 mph - N/A Fog Fog
6:53 AM 37.0 °F - 36.0 °F 96% 30.04 in 2.5 mi Calm Calm - N/A   Overcast
7:36 AM 37.4 °F - 35.6 °F 93% 30.04 in 0.5 mi Calm Calm - N/A Fog Fog
7:53 AM 37.0 °F - 36.0 °F 96% 30.06 in 0.2 mi Calm Calm - N/A Fog Fog
8:53 AM 37.0 °F - 36.0 °F 96% 30.07 in 2.0 mi Calm Calm - N/A   Overcast
9:23 AM 37.4 °F 34.9 °F 35.6 °F 93% 30.07 in 0.5 mi WNW 3.5 mph - N/A Fog Fog
9:53 AM 37.9 °F 35.5 °F 37.0 °F 97% 30.10 in 0.5 mi North 3.5 mph - 0.01 in Fog Fog
9:56 AM 37.4 °F - 35.6 °F 93% 30.09 in 2.0 mi Calm Calm - N/A Fog Fog
10:03 AM 37.4 °F - 37.4 °F 100% 30.09 in 0.5 mi Calm Calm - N/A Fog Fog
10:53 AM 39.0 °F - 37.0 °F 93% 30.11 in 0.5 mi Calm Calm - N/A Fog Fog
11:53 AM 39.9 °F - 37.9 °F 93% 30.11 in 1.2 mi Calm Calm - N/A   Overcast
12:53 PM 39.9 °F 37.8 °F 37.9 °F 93% 30.12 in 1.0 mi ESE 3.5 mph - N/A   Overcast
12:56 PM 39.2 °F 37.0 °F 37.4 °F 93% 30.10 in 2.0 mi ESE 3.5 mph - N/A   Overcast
1:53 PM 39.9 °F 37.8 °F 37.9 °F 93% 30.12 in 2.0 mi SSE 3.5 mph - N/A   Overcast
2:53 PM 41.0 °F 38.0 °F 39.0 °F 93% 30.12 in 2.0 mi South 4.6 mph - N/A   Overcast
3:53 PM 41.0 °F - 39.0 °F 93% 30.15 in 2.0 mi Calm Calm - N/A   Overcast
4:53 PM 41.0 °F - 39.0 °F 93% 30.14 in 2.0 mi Calm Calm - 0.01 in Rain Light Rain
5:00 PM 41.0 °F - 39.2 °F 93% 30.13 in 6.0 mi Calm Calm - 0.00 in Rain Light Rain
5:43 PM 41.0 °F - 39.2 °F 93% 30.14 in 6.0 mi Calm Calm - 0.00 in Rain Light Rain
5:53 PM 41.0 °F - 39.0 °F 93% 30.15 in 5.0 mi Calm Calm - 0.00 in Rain Light Rain
6:18 PM 41.0 °F - 39.2 °F 93% 30.13 in 5.0 mi Calm Calm - 0.00 in Rain Light Rain
6:46 PM 41.0 °F - 39.2 °F 93% 30.13 in 5.0 mi Calm Calm - 0.01 in Rain Light Rain
6:53 PM 41.0 °F - 39.0 °F 93% 30.15 in 4.0 mi Calm Calm - 0.01 in Rain Light Rain
7:10 PM 41.0 °F - 39.2 °F 93% 30.13 in 5.0 mi Calm Calm - 0.00 in Rain Light Rain
7:53 PM 41.0 °F - 39.0 °F 93% 30.15 in 5.0 mi Calm Calm - 0.02 in Rain Light Rain
8:53 PM 41.0 °F 39.0 °F 39.0 °F 93% 30.17 in 4.0 mi ESE 3.5 mph - 0.03 in Rain Light Rain
9:53 PM 41.0 °F 38.0 °F 39.0 °F 93% 30.17 in 5.0 mi ESE 4.6 mph - 0.04 in Rain Light Rain
10:53 PM 41.0 °F 39.0 °F 39.0 °F 93% 30.17 in 4.0 mi ESE 3.5 mph - 0.03 in Rain Light Rain
11:50 PM 41.0 °F 38.0 °F 39.2 °F 93% 30.16 in 4.0 mi ESE 4.6 mph - 0.01 in Rain Light Rain
11:53 PM 41.0 °F 38.0 °F 39.0 °F 93% 30.18 in 4.0 mi ESE 4.6 mph - 0.01 in Rain Light Rain